Home > Weather > Pago Pago > Past weeks

Flag for American Samoa Weather for the Past 2 Weeks in Pago Pago, American Samoa

Now
90 °F

Scattered clouds.


Feels Like: 108 °F
Forecast: 83 / 90 °F
Wind: 13 mph from East

Location: Pago Pago / Int. Airp.

Current Time: Feb 10, 2016 at 9:48:23 AM

Latest Report: Feb 10, 2016 at 8:51 AM


Visibility: 12 mi

Pressure: 29.83 "Hg

Humidity: 75%

Dew point: 81 °F

Location of Pago PagoLocation

Historic Weather in Pago Pago — Graph

°F

Pago Pago Temperature Yesterday

Maximum temperature yesterday: 94 °F (at 1:50 PM)
Minimum temperature yesterday: 80 °F (at 4:54 AM)
Average temperature yesterday: 86 °F

High & Low Weather Summary for the Past Weeks

 TemperatureHumidityPressure
High110 °F (Feb 8, 3:50 PM)92% (Feb 4, 12:51 AM)29.93 "Hg (Feb 4, 12:51 AM)
Low78 °F (Jan 29, 8:50 AM)18% (Feb 2, 6:52 PM)29.70 "Hg (Feb 8, 3:50 PM)
Average85 °F79%29.82 "Hg
* Reported Jan 26 8:51 AM — Feb 10 8:51 AM, Pago Pago, Weather by CustomWeather, © 2016

Note: Actual official high and low records may vary slightly from our data, if they occured in-between our weather recording intervals... More about our weather records

Advertising

Pago Pago Weather History for the Previous 24 Hours

 ConditionsComfort  
Time TempWeatherWind HumidityBarometerVisibility
8:51 AM
Wed, Feb 10
90 °FScattered clouds.13 mph75%29.83 "Hg12 mi
7:50 AM87 °FScattered clouds.14 mph80%29.84 "Hg12 mi
7:00 AM84 °FScattered clouds.13 mph86%29.83 "Hg12 mi
6:50 AM84 °FScattered clouds.13 mph86%29.83 "Hg12 mi
5:55 AM84 °FPassing clouds.12 mph84%29.82 "Hg10 mi
4:53 AM84 °FPassing clouds.12 mph86%29.81 "Hg10 mi
3:55 AM84 °FPassing clouds.7 mph87%29.81 "Hg10 mi
2:52 AM84 °FPassing clouds.9 mph84%29.82 "Hg10 mi
10:50 PM
Tue, Feb 9
85 °FPassing clouds.3 mph83%29.83 "Hg10 mi
9:50 PM85 °FPassing clouds.6 mph81%29.82 "Hg10 mi
8:50 PM85 °FPassing clouds.5 mph80%29.80 "Hg10 mi
7:51 PM86 °FPassing clouds.3 mph78%29.78 "Hg10 mi
1:50 PM94 °FPassing clouds.12 mph59%29.72 "Hg12 mi
12:50 PM94 °FScattered clouds.15 mph66%29.71 "Hg12 mi
11:53 AM93 °FScattered clouds.15 mph65%29.76 "Hg12 mi
10:50 AM92 °FScattered clouds.14 mph68%29.78 "Hg12 mi
9:54 AM92 °FBroken clouds.12 mph69%29.78 "Hg12 mi
Weather by CustomWeather, © 2016

See weather overviewHow to use our weather pages